Regional Weather Roundup
Issued by NWS Upton, NY

Current Version | Previous Version | Graphics & Text | Print | Product List | Glossary Off
Versions: 1 2 3 4 5 6 7 8 9 10 11 12 13 14 15 16 17 18 19 20 21 22 23 24 25 26 27

000
ASUS41 KOKX 201005
RWROKX

Regional Weather Roundup
National Weather Service New York NY
500 AM EST TUE FEB 20 2018

Note: "FAIR" indicates few or no clouds below 12,000 feet with no
significant weather and/or obstructions to visibility.

NYZ071-072-176-178-NJZ106-104-201100-
New York City Metro Area

CITY           SKY/WX    TMP DP  RH WIND       PRES   REMARKS
Central Park   CLOUDY    50  48  93 VRB5      30.31R FOG
Bronx Bot Gard   N/A     48  46  93 W2        30.29F
Bronx Lehman C   N/A     50  48  93 SW3         N/A
LaGuardia Arpt CLOUDY    51  48  89 W9        30.29R
Queens College   N/A     50  48  93 W12         N/A
Kennedy Intl   FOG       45  45 100 SW7       30.31R VSB 1/4
Breezy Point     N/A     43 N/A N/A S2          N/A
Brooklyn Coll    N/A     50  48  93 SW6         N/A
Staten Island    N/A     46  46 100 SW3         N/A
Newark/Liberty CLOUDY    48  48 100 SW9       30.30R FOG
Teterboro      CLOUDY    48  47  96 VRB3      30.29R FOG
$$

NYZ177-179-078>081-201100-
Long Island New York

CITY           SKY/WX    TMP DP  RH WIND       PRES   REMARKS
Jones Beach      N/A     43 N/A N/A S5          N/A
Wantagh          N/A     45  45 100 S5          N/A
Hempstead      NOT AVBL
Matinecock Pt    N/A     45 N/A N/A SW6         N/A
Farmingdale    FOG       45  45 100 S3        30.30S VSB 1/4
MacArthur/ISP  FOG       45  45 100 SW6       30.30R VSB 1/2
Shirley        FOG       46  46 100 SW8       30.31R VSB 1/2
Mt Sinai Harb    N/A    N/A N/A N/A SW5G10      N/A
Westhampton    FOG       46  46 100 SW7       30.32R VSB 1/2
East Hampton   FOG       46  46  98 SW10G16   30.30R VSB 1
Southold         N/A     48  48 100 S6          N/A
Montauk          N/A     49  49 100 SW8G17    30.31S
$$

NYZ052-065-067-201100-
Hudson Valley

CITY           SKY/WX    TMP DP  RH WIND       PRES   REMARKS
White Plains     N/A     46  46 100 CALM      30.27R FOG
Larchmont Harb   N/A     46 N/A N/A SW8         N/A
Croton On Huds   N/A     37 N/A N/A MISG        N/A
Somers           N/A     45  43  93 SW3         N/A
Brewster         N/A     41  39  93 CALM        N/A
Newburgh       FOG       41  41 100 CALM      30.27S VSB 1
Montgomery     CLOUDY    39  39 100 SW5       30.25S
Otisville        N/A     41  41 100 SW3         N/A
Warwick          N/A     37  37 100 SE1         N/A
Suffern          N/A     43  43 100 S2          N/A
Poughkeepsie   CLOUDY    40  39  97 SE3       30.26S FOG
Albany         CLOUDY    44  41  89 S7G17     30.21S
$$

NJZ001-105-106-008-010-013-015-019>022-104-201100-
New Jersey

CITY           SKY/WX    TMP DP  RH WIND       PRES   REMARKS
Newark/Liberty CLOUDY    48  48 100 SW9       30.30R FOG
Teterboro      CLOUDY    48  47  96 VRB3      30.29R FOG
Caldwell       CLOUDY    45  45 100 SW3       30.30R FOG
Somerville     FOG       40  40 100 CALM      30.29R VSB 1/2
Linden         CLOUDY    48  48  99 CALM      30.30S FOG
Perth Amboy      N/A     45 N/A N/A W6          N/A
Sussex         CLOUDY    41  41 100 SW9       30.27S FOG
Andover          N/A     41  41 100 S5        30.28S
Trenton        FOG       51  51 100 SW8       30.30S VSB 3/4
Millville      FOG       54  54 100 VRB6      30.33S VSB 1
Atlantic City  CLOUDY    54  54 100 S7        30.33S FOG
Wrightstown    CLOUDY    55  55  98 SW13      30.28  FOG
Toms River     CLOUDY    56  56 100 SW12G20   30.32R
Belmar         CLOUDY    56  54  93 SW13      30.31R
$$

PAZ047>061-062-071-201100-
Eastern Pennsylvania

CITY           SKY/WX    TMP DP  RH WIND       PRES   REMARKS
Philadelphia   FOG       48  48 100 SW3       30.32S VSB 1/4
Allentown      FOG       38  36  92 CALM      30.30R VSB 1/4
Scranton       FOG       41  41 100 CALM      30.25R VSB 1/4
$$

CTZ002-004>006-009-010-012-RIZ004-006-007-MAZ004-011-015-201100-
Southern New England

 In CT

CITY           SKY/WX    TMP DP  RH WIND       PRES   REMARKS
Bradley Intl   CLOUDY    46  46 100 S8        30.25S
Hartford       CLOUDY    48  48 100 S6        30.27R
Danbury        CLOUDY   N/A N/A N/A W3        30.28S
Wtrbury/Oxford FOG       45  45 100 VRB3      30.27R VSB 1/4
Norwalk Harbor   N/A     41 N/A N/A S2          N/A
Bridgeport     FOG       42  41  96 SW3       30.29R VSB 1/4
Meriden        FOG       45  45 100 SE6       30.27S VSB 1/2
New Haven      FOG       44  43  96 S5        30.29R VSB 1/4
Chester        FOG       48  48 100 SW9       30.28R VSB<1/4
Groton         FOG       47  46  97 VRB3      30.29R VSB 1/4
Willimantic    CLOUDY    51  49  92 SW8       30.27S

 In RI

CITY           SKY/WX    TMP DP  RH WIND       PRES   REMARKS
Providence     CLOUDY    52  51  97 SW14      30.27S
Block Island   LGT RAIN  45  45 100 SW14      30.32R VSB 1/2
Westerly       FOG       48  48 100 SW7       30.31R VSB 1/4

In MA

CITY           SKY/WX    TMP DP  RH WIND       PRES   REMARKS
Boston         CLOUDY    52  50  93 SW16      30.23S
Worcester      CLOUDY    48  47  96 SW15      30.22S
Westfield      CLOUDY    45  45 100 S7        30.23R
Provincetown   LGT RAIN  44  44 100 SW16G22   30.26R VSB 3/4
Nantucket      LGT RAIN  47  47 100 SW15      30.32R VSB 1/2
$$

ANZ330-335-338-340-345-350-353-355-201100-
Coastal Marine Observations


STATION/POSITION TIME  SKY/WX   TEMP    WIND        PRES    VSBY  WAVE
                                AIR SEA DIR/SP/G                  HT/PER
                 (UTC)          (F)     (DEG/KT/KT) (MB)    (MI)  (FT/S)
NY Harb Entrance 0950            43 40  190/ 10/ 12 1025.8          4/ 5
20 S Fire Island 0950            45 42  220/ 12/ 14 1026.6          4/ 5
15 E Barnegat Li 0930               41                N/A           4/10
Hudson Canyon    0950            51 46  210/ 16/ 17 1027.4          5/11
Kings Point      0936            47 37  260/  9/ 10 1026.7
Execution Rocks  NOT AVBL
Western LI Sound NOT AVBL
Central LI Sound 0915            42     260/  4/  6   N/A           1
Robbins Reef     0948            48     260/  4/  7 1026.6
$$


>>>>>>>>>>>>>>>>>>>>>>>>>>>> KEY <<<<<<<<<<<<<<<<<<<<<<<<<<<
>                                                          <
>     SKY/WX - Sky Condition/Present Weather               <
>     TMP    - Temperature in Fahrenheit                   <
>     DP     - Dew Point in Fahrenheit                     <
>     RH     - Relative Humidity in Percent                <
>     WIND   - Direction (from) and Speed in MPH           <
>     PRES   - Mean Sea Level Pressure (inches of Hg)      <
>     WCI    - Wind Chill Index                            <
>     VSB    - Visibility in Miles                         <
>     HX     - Heat Index                                  <
>     TC     - Temperature in Celsius                      <
>     VRB    - Varibale Wind Direction                     <
>                                                          <
>>>>>>>>>>>>>>>>>>>>>>>>>>>> KEY <<<<<<<<<<<<<<<<<<<<<<<<<<<




USA.gov is the U.S. government's official web portal to all federal, state and local government web resources and services.